User: anonymous   Login
Location: Unspecified
(0.0000°N, 0.0000°E)
Time: 19:46:32
(UTC+00:00)
Language:

CICERO 7 - Orbit

View from above orbital plane
View from above orbital plane
View from above satellite
View from above satellite

Ground track
Ground track

The orbit data is extracted from the following two-line orbital elements,

1 43143U 18004AJ  21020.20952289  .00001819  00000-0  72851-4 0  9996
2 43143  97.4252  97.1959 0007569  28.4148 331.7502 15.26322455168168
Epoch (UTC): 20 January 2021 05:01:42
Eccentricity: 0.0007569
inclination: 97.4252°
perigee height: 481 km
apogee height: 492 km
right ascension of ascending node: 97.1959°
argument of perigee: 28.4148°
revolutions per day: 15.26322455
mean anomaly at epoch: 331.7502°
orbit number at epoch: 16816

The dashed part of the orbit path shows where the satellite is in the earth's shadow,  

DLR